1495314000.22,15904,19.06,73912.3,2.03,1.37,1.33,0,*71
1495314001.48,15905,19.06,73900.5,2.01,1.33,1.33,0,*76
1495314002.72,15906,19.06,73900.5,2.03,1.33,1.37,0,*73
1495314003.96,15907,19.06,73908.5,2.03,1.37,1.43,0,*75
1495314005.2,15908,19.06,73900.0,2.03,1.37,1.37,0,*79
1495314006.44,15909,19.06,73902.8,2.03,1.37,1.33,0,*7C
1495314007.68,15910,19.06,73906.3,2.03,1.33,1.37,0,*74
1495314008.92,15911,19.06,73902.5,2.03,1.33,1.37,0,*75
1495314010.16,15912,19.06,73900.8,2.03,1.33,1.37,0,*76
1495314011.4,15913,19.06,73900.0,2.03,1.33,1.33,0,*73
1495314012.64,15914,19.06,73906.3,2.03,1.33,1.33,0,*74
1495314013.88,15915,19.06,73904.0,2.03,1.33,1.33,0,*75
1495314015.12,15916,19.06,73900.0,2.03,1.21,1.33,0,*75
1495314016.36,15917,19.06,73904.0,2.03,1.29,1.33,0,*7C
1495314017.6,15918,19.06,73904.8,2.03,1.29,1.33,0,*73
1495314018.85,15919,19.06,73906.0,2.01,1.25,1.29,0,*77
1495314020.09,15920,19.06,73906.3,2.03,1.29,1.33,0,*78
1495314021.33,15921,19.06,73910.3,2.03,1.33,1.33,0,*72
1495314022.59,15922,19.06,73914.5,2.01,1.29,1.29,0,*73
1495314023.83,15923,19.06,73908.5,2.03,1.29,1.33,0,*7B
1495314025.07,15924,19.06,73904.0,2.03,1.29,1.29,0,*77
1495314026.31,15925,19.06,73904.0,2.03,1.29,1.29,0,*76
1495314027.57,15926,19.06,73902.5,2.01,1.29,1.29,0,*77
1495314028.81,15927,19.06,73902.5,2.03,1.33,1.37,0,*70
1495314030.05,15928,19.06,73896.8,2.03,1.33,1.33,0,*7B
1495314031.29,15929,19.06,73892.5,2.03,1.33,1.33,0,*7A
1495314032.55,15930,19.06,73898.3,2.01,1.29,1.29,0,*70
1495314033.79,15931,19.06,73902.3,2.03,1.33,1.33,0,*73
1495314035.03,15932,19.06,73898.8,2.03,1.33,1.33,0,*70
1495314036.29,15933,19.06,73906.3,2.01,1.29,1.33,0,*78
1495314037.53,15934,19.06,73902.5,2.03,1.37,1.37,0,*76
1495314038.77,15935,19.06,73904.0,2.03,1.37,1.33,0,*73
1495314040.01,15936,19.06,73910.0,2.03,1.37,1.33,0,*70
1495314041.25,15937,19.06,73916.8,2.03,1.33,1.37,0,*71
1495314042.49,15938,19.06,73914.3,2.03,1.37,1.37,0,*7A
1495314043.73,15939,19.06,73916.8,2.03,1.33,1.33,0,*7B
1495314044.97,15940,19.06,73908.5,2.03,1.37,1.37,0,*75
1495314046.21,15941,19.06,73914.3,2.03,1.33,1.37,0,*70
1495314047.45,15942,19.06,73910.5,2.03,1.29,1.33,0,*7C
1495314048.69,15943,19.06,73914.8,2.03,1.29,1.33,0,*7D
1495314049.96,15944,19.06,73914.3,2.01,1.29,1.33,0,*78
1495314051.22,15945,19.06,73908.0,2.01,1.33,1.33,0,*72
1495314052.46,15946,19.06,73912.5,2.03,1.37,1.33,0,*77
1495314053.7,15947,19.06,73910.8,2.03,1.37,1.37,0,*72
1495314054.93,15948,19.06,73908.3,2.03,1.37,1.43,0,*7E
1495314056.17,15949,19.06,73904.3,2.03,1.37,1.43,0,*7F
1495314057.41,15950,19.06,73910.5,2.03,1.29,1.37,0,*7B
1495314058.63,15951,19.06,73908.5,2.03,1.43,1.43,0,*75
1495314059.89,15952,19.06,73912.8,2.01,1.29,1.29,0,*74
1495314061.13,15953,19.06,73906.0,2.03,1.37,1.33,0,*73
1495314062.39,15954,19.06,73904.3,2.01,1.33,1.33,0,*72
1495314063.63,15955,19.06,73902.3,2.03,1.33,1.37,0,*75
1495314064.87,15956,19.06,73906.3,2.03,1.29,1.33,0,*79
1495314066.11,15957,19.06,73900.8,2.03,1.33,1.33,0,*73
1495314067.38,15958,19.06,73900.3,2.01,1.33,1.33,0,*7E
1495314068.62,15959,19.06,73902.3,2.03,1.37,1.33,0,*79
1495314069.85,15960,19.06,73906.0,2.03,1.43,1.37,0,*74
1495314071.11,15961,19.06,73902.5,2.01,1.33,1.33,0,*74
1495314072.35,15962,19.06,73910.3,2.03,1.37,1.37,0,*75
1495314073.62,15963,19.06,73908.0,2.05,1.37,1.37,0,*72
1495314074.85,15964,19.06,73902.3,2.03,1.43,1.37,0,*70
1495314076.11,15965,19.06,73888.5,2.01,1.29,1.29,0,*70
1495314077.35,15966,19.06,73888.3,2.03,1.37,1.33,0,*75
1495314078.59,15967,19.06,73896.3,2.03,1.33,1.33,0,*70
1495314079.83,15968,19.06,73902.5,2.03,1.33,1.33,0,*7F
1495314081.09,15969,19.06,73902.3,2.01,1.29,1.29,0,*7C
1495314082.33,15970,19.06,73910.8,2.03,1.37,1.37,0,*76
1495314083.57,15971,19.06,73902.5,2.03,1.33,1.37,0,*73
1495314084.83,15972,19.06,73902.0,2.01,1.29,1.29,0,*76
1495314086.07,15973,19.06,73910.0,2.03,1.33,1.37,0,*71
1495314087.31,15974,19.06,73900.0,2.03,1.33,1.21,0,*71
1495314088.55,15975,19.06,73894.0,2.03,1.33,1.33,0,*73
1495314089.79,15976,19.06,73896.3,2.03,1.33,1.33,0,*70
1495314091.03,15977,19.06,73896.0,2.03,1.33,1.33,0,*71
1495314092.27,15978,19.06,73898.0,2.03,1.37,1.33,0,*7A
1495314093.51,15979,19.06,73902.3,2.03,1.29,1.37,0,*70
1495314094.75,15980,19.06,73902.3,2.03,1.37,1.37,0,*79
1495314095.98,15981,19.06,73902.8,2.03,1.43,1.37,0,*7B
1495314097.24,15982,19.06,73902.5,2.01,1.33,1.33,0,*79
1495314098.51,15983,19.06,73904.0,2.01,1.29,1.33,0,*73
1495314099.77,15984,19.06,73902.8,2.01,1.29,1.33,0,*74
1495314101.03,15985,19.06,73904.3,2.01,1.29,1.29,0,*7E
1495314102.27,15986,19.06,73898.0,2.03,1.21,1.21,0,*7F
1495314103.53,15987,19.06,73896.8,2.01,1.17,1.17,0,*7C
1495314104.78,15988,19.06,73894.5,2.01,1.25,1.25,0,*73
1495314106.04,15989,19.06,73890.0,2.01,1.25,1.25,0,*72
1495314107.27,15990,19.06,73892.5,2.03,1.21,1.29,0,*70
1495314108.53,15991,19.06,73898.8,2.01,1.25,1.17,0,*7A
1495314109.79,15992,19.06,73902.0,2.01,1.29,1.33,0,*73
1495314111.06,15993,19.06,73900.0,2.01,1.33,1.33,0,*79
1495314112.32,15994,19.06,73898.8,2.01,1.33,1.33,0,*7E
1495314113.55,15995,19.06,73900.0,2.01,1.33,1.41,0,*7A
1495314114.74,15996,19.06,73902.5,2.01,1.41,1.41,0,*7C
1495314115.97,15997,19.06,73902.0,2.01,1.33,1.41,0,*78
1495314117.24,15998,19.06,73896.8,2.01,1.33,1.37,0,*76
1495314118.5,15999,19.06,73902.0,2.01,1.33,1.29,0,*78
1495314119.76,16000,19.06,73902.3,2.01,1.29,1.29,0,*79
1495314121.02,16001,19.06,73910.0,2.01,1.33,1.33,0,*78
1495314122.25,16002,19.06,73906.8,2.01,1.41,1.33,0,*7E
1495314123.48,16003,19.06,73908.8,2.03,1.43,1.37,0,*7B
1495314124.74,16004,19.06,73910.0,2.01,1.29,1.33,0,*76
1495314126.0,16005,19.06,73910.0,2.01,1.33,1.33,0,*7C
1495314127.24,16006,19.06,73902.5,2.03,1.17,1.33,0,*7B
1495314128.5,16007,19.06,73904.8,2.01,1.25,1.29,0,*72
1495314129.74,16008,19.06,73906.3,2.03,1.33,1.33,0,*73
1495314131.0,16009,19.06,73904.0,2.01,1.29,1.33,0,*7B
1495314132.22,16010,19.06,73912.5,2.03,1.43,1.43,0,*7A
1495314133.44,16011,19.06,73896.0,2.03,1.47,1.43,0,*7F
1495314134.71,16012,19.06,73892.8,2.05,1.33,1.33,0,*7E
1495314135.97,16013,19.06,73896.3,2.01,1.33,1.33,0,*7B
1495314137.23,16014,19.06,73898.5,2.01,1.29,1.29,0,*7C
1495314138.47,16015,19.06,73900.5,2.03,1.37,1.37,0,*7F
1495314139.71,16016,19.06,73902.5,2.03,1.33,1.43,0,*7B
1495314140.97,16017,19.06,73906.0,2.01,1.29,1.29,0,*7F
1495314142.22,16018,19.06,73898.5,2.01,1.17,1.25,0,*71
1495314143.48,16019,19.06,73894.8,2.01,1.25,1.25,0,*71
1495314144.73,16020,19.06,73888.8,2.01,1.25,1.25,0,*7B
1495314145.97,16021,19.06,73900.5,2.03,1.37,1.33,0,*7C
1495314147.21,16022,19.06,73900.8,2.03,1.33,1.37,0,*7F
1495314148.47,16023,19.06,73898.0,2.01,1.29,1.33,0,*73
1495314149.71,16024,19.06,73898.3,2.03,1.33,1.33,0,*7D
1495314150.96,16025,19.06,73900.0,2.03,1.37,1.37,0,*7C
1495314152.21,16026,19.06,73902.3,2.01,1.29,1.29,0,*7D
1495314153.47,16027,19.06,73900.8,2.01,1.33,1.29,0,*77
1495314154.72,16028,19.06,73902.5,2.03,1.37,1.33,0,*75
1495314155.98,16029,19.06,73900.3,2.01,1.33,1.33,0,*72
1495314157.22,16030,19.06,73894.8,2.03,1.33,1.33,0,*78
1495314158.47,16031,19.06,73898.8,2.01,1.25,1.29,0,*77
1495314159.71,16032,19.06,73894.3,2.03,1.33,1.33,0,*7A
1495314160.97,16033,19.06,73902.5,2.01,1.29,1.29,0,*79
1495314162.23,16034,19.06,73896.8,2.01,1.29,1.29,0,*7E
1495314163.49,16035,19.06,73900.3,2.01,1.29,1.29,0,*7F
1495314164.75,16036,19.06,73894.0,2.01,1.29,1.29,0,*7C
1495314166.01,16037,19.06,73896.8,2.01,1.25,1.29,0,*71
1495314167.27,16038,19.06,73896.3,2.01,1.29,1.29,0,*72
1495314168.53,16039,19.06,73900.5,2.01,1.29,1.29,0,*73
1495314169.79,16040,19.06,73900.5,2.01,1.29,1.29,0,*7D
1495314171.05,16041,19.06,73902.0,2.01,1.29,1.29,0,*7C
1495314172.31,16042,19.06,73902.0,2.01,1.29,1.29,0,*7F
1495314173.56,16043,19.0,73898.5,2.01,1.25,1.25,0,*7E
1495314174.79,16044,19.06,73902.0,1.99,1.25,1.17,0,*7A
1495314176.02,16045,19.06,73910.0,1.99,1.17,1.17,0,*7A
1495314177.25,16046,19.06,73906.8,1.99,1.25,1.17,0,*78
1495314178.48,16047,19.06,73904.0,1.99,1.25,1.17,0,*79
1495314179.7,16048,19.06,73906.5,1.99,1.25,1.25,0,*77
1495314180.93,16049,19.06,73906.5,1.99,1.25,1.25,0,*76
1495314182.16,16050,19.06,73904.5,1.99,1.25,1.25,0,*7E
1495314183.38,16051,19.06,73904.5,1.99,1.25,1.25,0,*7F
1495314184.65,16052,19.06,73902.8,1.97,1.21,1.21,0,*72
1495314185.88,16053,19.06,73898.8,1.99,1.21,1.25,0,*79
1495314187.08,16054,19.06,73894.8,1.99,1.05,1.13,0,*7D
1495314188.32,16055,19.0,73894.3,1.99,1.13,1.17,0,*7F
1495314189.54,16056,19.06,73892.5,1.99,1.25,1.25,0,*78
1495314190.77,16057,19.06,73894.5,1.99,1.25,1.25,0,*79
1495314192.0,16058,19.06,73894.8,1.99,1.25,1.17,0,*77
1495314193.26,16059,19.06,73888.3,1.97,1.21,1.13,0,*78
1495314194.52,16060,19.06,73900.3,1.97,1.13,1.21,0,*72
1495314195.78,16061,19.06,73902.8,1.97,1.13,1.09,0,*79
1495314197.01,16062,19.06,73898.8,1.99,1.13,1.17,0,*7B
1495314198.27,16063,19.0,73890.0,1.97,1.09,1.13,0,*7B
1495314199.5,16064,19.06,73890.3,1.99,1.13,1.13,0,*79
1495314200.76,16065,19.06,73900.0,1.97,1.21,1.09,0,*7C
1495314202.02,16066,19.06,73902.8,1.97,1.21,1.21,0,*75
1495314203.28,16067,19.06,73898.5,1.97,1.13,1.13,0,*74
1495314204.54,16068,19.06,73896.0,1.97,1.09,1.09,0,*7B
1495314205.77,16069,19.06,73892.0,1.97,1.01,1.09,0,*72
1495314207.02,16070,19.06,73892.5,1.97,1.13,1.13,0,*72
1495314208.28,16071,19.06,73892.8,1.97,1.13,1.13,0,*73
1495314209.54,16072,19.06,73892.8,1.97,1.21,1.13,0,*71
1495314210.8,16073,19.06,73894.3,1.97,1.21,1.21,0,*71
1495314212.04,16074,19.06,73892.0,1.95,1.17,1.09,0,*7B
1495314213.27,16075,19.0,73904.8,1.95,1.09,1.17,0,*7A
1495314214.5,16076,19.06,73906.5,1.95,1.17,1.17,0,*76
1495314215.73,16077,19.06,73902.5,1.95,1.09,1.17,0,*78
1495314216.97,16078,19.06,73906.3,1.95,1.17,1.17,0,*78
1495314218.2,16079,19.06,73914.8,1.95,1.17,1.21,0,*7C
1495314219.43,16080,19.06,73908.3,1.95,1.17,1.17,0,*7F
1495314220.67,16081,19.06,73914.8,1.95,1.17,1.17,0,*7E
1495314221.93,16082,19.06,73912.3,1.97,1.21,1.21,0,*7F
1495314223.19,16083,19.06,73910.0,1.97,1.21,1.25,0,*7A
1495314224.44,16084,19.0,73908.8,1.97,1.21,1.25,0,*7D
1495314225.7,16085,19.06,73910.3,1.97,1.21,1.25,0,*7C
1495314226.95,16086,19.06,73908.3,1.97,1.25,1.29,0,*77
1495314228.21,16087,19.06,73908.0,1.97,1.29,1.29,0,*7A
1495314229.46,16088,19.06,73906.8,1.97,1.29,1.29,0,*75
1495314230.72,16089,19.06,73904.5,1.97,1.37,1.25,0,*77
1495314231.98,16090,19.06,73904.8,1.97,1.29,1.29,0,*7C
1495314233.23,16091,19.06,73902.5,1.97,1.29,1.25,0,*71
1495314234.49,16092,19.06,73904.3,1.97,1.29,1.25,0,*72
1495314235.74,16093,19.06,73904.8,1.97,1.25,1.25,0,*7F
1495314236.97,16094,19.06,73908.0,1.99,1.29,1.29,0,*76
1495314238.22,16095,19.06,73908.3,1.97,1.25,1.29,0,*75
1495314239.46,16096,19.06,73912.5,1.95,1.25,1.21,0,*7C
1495314240.71,16097,19.06,73910.3,1.97,1.29,1.29,0,*7B
1495314241.97,16098,19.06,73906.5,1.97,1.29,1.29,0,*74
1495314243.23,16099,19.06,73910.3,1.97,1.29,1.29,0,*75
1495314244.48,16100,19.06,73908.5,1.97,1.25,1.29,0,*78
1495314245.73,16101,19.06,73908.5,1.97,1.29,1.25,0,*79
1495314246.99,16102,19.06,73904.0,1.97,1.29,1.29,0,*76
1495314248.24,16103,19.06,73900.3,1.97,1.25,1.25,0,*77
1495314249.49,16104,19.06,73906.3,1.97,1.25,1.25,0,*70
1495314250.75,16105,19.06,73904.5,1.97,1.29,1.25,0,*7D
1495314252.0,16106,19.06,73906.5,1.97,1.25,1.25,0,*72
1495314253.25,16107,19.06,73902.0,1.97,1.29,1.29,0,*73
1495314254.49,16108,19.06,73902.8,1.99,1.29,1.29,0,*72
1495314255.75,16109,19.0,73912.5,1.97,1.21,1.25,0,*79
1495314257.0,16110,19.06,73912.5,1.97,1.21,1.25,0,*71
1495314258.23,16111,19.06,73902.8,1.99,1.25,1.29,0,*76
1495314259.49,16112,19.06,73908.5,1.97,1.13,1.13,0,*77
1495314260.72,16113,19.06,73898.3,1.95,1.17,1.17,0,*74
1495314261.95,16114,19.06,73902.8,1.95,1.17,1.17,0,*73
1495314263.19,16115,19.06,73898.3,1.95,1.21,1.17,0,*77
1495314264.42,16116,19.0,73898.8,1.95,1.21,1.25,0,*75
1495314265.66,16117,19.06,73898.5,1.95,1.21,1.25,0,*74
1495314266.91,16118,19.06,73898.8,1.97,1.29,1.25,0,*71
1495314268.17,16119,19.06,73902.0,1.97,1.25,1.29,0,*70
1495314269.42,16120,19.06,73904.0,1.97,1.25,1.25,0,*76
1495314270.67,16121,19.06,73902.8,1.97,1.25,1.25,0,*77
1495314271.9,16122,19.06,73900.8,1.95,1.21,1.25,0,*72
1495314273.14,16123,19.06,73900.8,1.95,1.21,1.21,0,*77
1495314274.37,16124,19.06,73898.5,1.95,1.25,1.25,0,*70
1495314275.6,16125,19.06,73908.8,1.95,1.21,1.25,0,*75
1495314276.85,16126,19.06,73902.0,1.97,1.25,1.25,0,*70
1495314278.09,16127,19.0,73898.0,1.95,1.21,1.21,0,*73
1495314279.33,16128,19.06,73898.3,1.95,1.21,1.21,0,*7C
1495314280.58,16129,19.0,73900.5,1.97,1.25,1.29,0,*73
1495314281.82,16130,19.06,73904.5,1.95,1.21,1.21,0,*75
1495314283.08,16131,19.06,73904.0,1.93,1.21,1.17,0,*77
1495314284.32,16132,19.0,73896.0,1.95,1.21,1.17,0,*72
1495314285.55,16133,19.06,73884.0,1.95,1.21,1.17,0,*73
1495314286.79,16134,19.06,73890.0,1.95,1.17,1.17,0,*71
1495314288.02,16135,19.0,73894.8,1.95,1.17,1.21,0,*75
1495314289.26,16136,19.06,73900.3,1.95,1.21,1.21,0,*73
1495314290.49,16137,19.06,73896.0,1.95,1.25,1.21,0,*76
1495314291.73,16138,19.06,73896.5,1.95,1.21,1.21,0,*7D
1495314292.97,16139,19.06,73914.0,1.95,1.21,1.17,0,*79
1495314294.2,16140,19.06,73916.3,1.95,1.09,1.17,0,*7D
1495314295.43,16141,19.06,73892.3,1.95,1.17,1.17,0,*73
1495314296.67,16142,19.06,73892.0,1.95,1.21,1.21,0,*70
1495314297.91,16143,19.06,73904.3,1.95,1.21,1.21,0,*71
1495314299.18,16144,19.0,73890.8,1.93,1.21,1.21,0,*70
1495314300.41,16145,19.06,73892.5,1.95,1.09,1.17,0,*78
1495314301.64,16146,19.06,73888.3,1.95,1.17,1.17,0,*74
1495314302.88,16147,19.0,73900.8,1.95,1.17,1.17,0,*75
1495314304.11,16148,19.06,73900.5,1.95,1.09,1.17,0,*75
1495314305.34,16149,19.06,73892.3,1.95,1.09,1.17,0,*74
1495314306.57,16150,19.06,73898.8,1.95,1.09,1.09,0,*73
1495314307.83,16151,19.0,73896.3,1.93,1.17,1.17,0,*74
1495314309.07,16152,19.06,73904.5,1.95,1.17,1.09,0,*7E
1495314310.33,16153,19.0,73902.8,1.93,1.09,1.17,0,*79
1495314311.56,16154,19.06,73900.5,1.95,1.09,1.09,0,*77
1495314312.82,16155,19.0,73906.0,1.93,1.17,1.17,0,*70
1495314314.05,16156,19.0,73902.8,1.95,1.17,1.17,0,*75
1495314315.28,16157,19.06,73902.0,1.95,1.17,1.17,0,*74
1495314316.52,16158,19.0,73898.8,1.95,1.17,1.17,0,*7B
1495314317.78,16159,19.06,73896.8,1.93,1.17,1.21,0,*79
1495314319.01,16160,19.0,73896.3,1.95,1.25,1.25,0,*70
1495314320.27,16161,19.06,73902.0,1.93,1.21,1.25,0,*73
1495314321.53,16162,19.06,73900.8,1.93,1.21,1.21,0,*74
1495314322.77,16163,19.06,73904.3,1.95,1.21,1.21,0,*73
1495314324.01,16164,19.06,73898.5,1.95,1.21,1.21,0,*74
1495314325.25,16165,19.0,73902.3,1.95,1.21,1.21,0,*75
1495314326.51,16166,19.0,73900.5,1.93,1.21,1.21,0,*70
1495314327.78,16167,19.06,73908.5,1.93,1.21,1.21,0,*71
1495314329.05,16168,19.06,73906.8,1.93,1.21,1.21,0,*7E
1495314330.28,16169,19.06,73910.5,1.95,1.09,1.09,0,*79
1495314331.51,16170,19.06,73910.5,1.93,1.09,1.05,0,*7B
1495314332.77,16171,19.06,73910.3,1.93,1.17,1.09,0,*79
1495314334.03,16172,19.0,73912.0,1.93,1.17,1.17,0,*75
1495314335.26,16173,19.06,73912.3,1.95,1.17,1.17,0,*72
1495314336.53,16174,19.06,73914.3,1.93,1.21,1.25,0,*77
1495314337.76,16175,19.0,73910.8,1.95,1.25,1.37,0,*77
1495314339.02,16176,19.06,73914.3,1.93,1.33,1.33,0,*71
1495314340.25,16177,19.06,73920.8,1.95,1.25,1.33,0,*71
1495314341.52,16178,19.06,73908.3,1.93,1.21,1.21,0,*7F
1495314342.78,16179,19.06,73892.5,1.93,1.21,1.21,0,*7E
1495314344.04,16180,19.0,73896.8,1.93,1.17,1.17,0,*78
1495314345.28,16181,19.06,73900.5,1.95,1.17,1.21,0,*7A
1495314346.53,16182,19.06,73898.5,1.93,1.25,1.25,0,*7A
1495314347.77,16183,19.06,73892.5,1.95,1.21,1.25,0,*79
1495314349.03,16184,19.06,73892.0,1.93,1.21,1.21,0,*7C
1495314350.3,16185,19.0,73890.3,1.93,1.21,1.21,0,*7D
1495314351.53,16186,19.06,73894.3,1.95,1.21,1.21,0,*78
1495314352.77,16187,19.0,73892.5,1.95,1.25,1.21,0,*7D
1495314354.01,16188,19.0,73894.3,1.95,1.21,1.21,0,*76
1495314355.24,16189,19.06,73896.8,1.95,1.21,1.25,0,*73
1495314356.47,16190,19.06,73896.0,1.95,1.25,1.21,0,*7B
1495314357.74,16191,19.06,73906.8,1.93,1.21,1.21,0,*78
1495314358.97,16192,19.06,73900.8,1.95,1.21,1.17,0,*78
1495314360.21,16193,19.0,73900.5,1.95,1.17,1.17,0,*7C
1495314361.47,16194,19.06,73894.5,1.93,1.17,1.21,0,*78
1495314362.73,16195,19.06,73896.5,1.93,1.09,1.17,0,*73
1495314363.99,16196,19.06,73906.8,1.93,1.17,1.17,0,*7F
1495314365.25,16197,19.06,73900.3,1.93,1.21,1.17,0,*7B
1495314366.51,16198,19.06,73906.5,1.93,1.17,1.17,0,*71
1495314367.76,16199,19.06,73896.5,1.93,1.09,1.17,0,*7F
1495314369.02,16200,19.0,73902.8,1.93,1.17,1.17,0,*73
1495314370.28,16201,19.0,73894.3,1.93,1.17,1.17,0,*72
1495314371.54,16202,19.06,73896.3,1.93,1.17,1.17,0,*71
1495314372.8,16203,19.0,73904.3,1.93,1.21,1.17,0,*75
1495314374.06,16204,19.0,73904.5,1.93,1.17,1.17,0,*77
1495314375.32,16205,19.06,73894.0,1.93,1.17,1.09,0,*79
1495314376.55,16206,19.0,73872.0,1.93,1.05,1.09,0,*79
1495314377.78,16207,19.06,73904.8,1.93,1.05,1.09,0,*78
1495314379.04,16208,19.06,73894.0,1.93,1.17,1.17,0,*7B
1495314380.25,16209,19.06,73894.0,1.95,1.05,1.09,0,*70
1495314381.51,16210,19.06,73892.5,1.93,1.17,1.17,0,*72
1495314382.77,16211,19.06,73882.0,1.93,1.09,1.17,0,*7C
1495314384.0,16212,19.06,73910.8,1.91,1.13,1.13,0,*72
1495314385.26,16213,19.06,73904.8,1.93,1.17,1.17,0,*71
1495314386.5,16214,19.06,73902.3,1.91,1.13,1.13,0,*74
1495314387.74,16215,19.06,73900.3,1.91,1.13,1.13,0,*75
1495314388.95,16216,19.06,73892.0,1.91,1.13,1.05,0,*71
1495314390.16,16217,19.06,73896.8,1.91,1.05,1.13,0,*70
1495314391.37,16218,19.06,73892.8,1.91,1.13,1.05,0,*7F
1495314392.55,16219,19.0,73884.8,1.91,1.05,1.01,0,*7D
1495314393.73,16220,19.06,73890.3,1.91,1.01,1.01,0,*73
1495314394.93,16221,19.06,73890.0,1.91,1.01,0.95,0,*4E
1495314396.14,16222,19.0,73884.5,1.89,1.05,0.95,0,*40
1495314397.34,16223,19.0,73892.0,1.89,1.01,1.01,0,*79
1495314398.58,16224,19.0,73888.5,1.91,1.13,1.13,0,*77
1495314399.84,16225,19.0,73890.5,1.89,1.13,1.13,0,*7F
1495314401.08,16226,19.06,73886.8,1.91,1.13,1.13,0,*75
1495314402.31,16227,19.0,73884.3,1.91,1.13,1.13,0,*74
1495314403.52,16228,19.06,73890.5,1.91,1.05,1.13,0,*7C
1495314404.73,16229,19.0,73888.8,1.91,1.13,1.05,0,*7D
1495314405.97,16230,19.0,73898.3,1.91,1.13,1.13,0,*72
1495314407.21,16231,19.06,73908.3,1.91,1.13,1.13,0,*73
1495314408.39,16232,19.06,73876.3,1.91,1.01,1.01,0,*70
1495314409.6,16233,19.06,73886.0,1.91,0.95,0.95,0,*71
1495314410.8,16234,19.06,73906.3,1.89,1.01,1.05,0,*7B
1495314412.04,16235,19.0,73892.0,1.91,1.13,1.13,0,*77
1495314413.28,16236,19.0,73904.3,1.91,1.17,1.17,0,*74
1495314414.51,16237,19.0,73896.8,1.91,1.21,1.29,0,*7D
1495314415.75,16238,19.0,73900.8,1.91,1.17,1.17,0,*7A
1495314417.01,16239,19.0,73898.3,1.89,1.13,1.17,0,*76
1495314418.25,16240,19.0,73898.8,1.91,1.21,1.21,0,*75
1495314419.49,16241,19.0,73894.8,1.91,1.17,1.21,0,*71
1495314420.72,16242,19.0,73896.0,1.91,1.17,1.17,0,*77
1495314421.96,16243,19.0,73900.5,1.91,1.21,1.21,0,*76
1495314423.22,16244,19.0,73880.3,1.89,1.17,1.17,0,*78
1495314424.46,16245,19.06,73876.5,1.91,1.17,1.21,0,*75
1495314425.69,16246,19.0,73874.0,1.91,1.17,1.17,0,*73
1495314426.95,16247,19.0,73892.5,1.89,1.17,1.17,0,*7B
1495314428.2,16248,19.0,73900.8,1.89,1.17,1.17,0,*74
1495314429.44,16249,19.0,73904.3,1.91,1.17,1.17,0,*7C
1495314430.67,16250,19.06,73910.3,1.89,1.13,1.05,0,*7A
1495314431.91,16251,19.0,73908.5,1.91,1.13,1.13,0,*75
1495314433.14,16252,19.0,73906.8,1.91,1.13,1.13,0,*76
1495314434.38,16253,19.0,73904.5,1.91,1.21,1.13,0,*76
1495314435.62,16254,19.0,73900.3,1.91,1.17,1.17,0,*70
1495314436.85,16255,19.06,73906.8,1.91,1.17,1.13,0,*75
1495314438.09,16256,19.0,73910.3,1.91,1.13,1.13,0,*72
1495314439.33,16257,19.06,73910.0,1.91,1.13,1.13,0,*73
1495314440.56,16258,19.0,73902.5,1.89,1.13,1.05,0,*72
1495314441.82,16259,19.0,73904.0,1.89,1.13,1.13,0,*74
1495314443.06,16260,19.0,73906.0,1.91,1.13,1.13,0,*77
1495314444.32,16261,19.0,73904.8,1.89,1.13,1.13,0,*7F
1495314445.57,16262,19.0,73902.5,1.89,1.13,1.13,0,*7C
1495314446.83,16263,19.0,73890.8,1.89,1.13,1.13,0,*7D
1495314448.09,16264,19.0,73894.8,1.89,1.21,1.21,0,*7A
1495314449.34,16265,19.0,73890.3,1.91,1.21,1.21,0,*72
1495314450.57,16266,19.0,73906.8,1.91,1.21,1.17,0,*74
1495314451.83,16267,19.0,73906.3,1.89,1.21,1.21,0,*79
1495314453.09,16268,19.0,73890.3,1.89,1.17,1.21,0,*73
1495314454.33,16269,19.06,73900.0,1.91,1.17,1.17,0,*7E
1495314455.58,16270,19.0,73892.8,1.89,1.17,1.17,0,*7F
1495314456.84,16271,19.0,73888.0,1.89,1.17,1.17,0,*7E
1495314458.1,16272,19.0,73900.8,1.89,1.17,1.21,0,*78
1495314459.34,16273,19.0,73904.8,1.91,1.21,1.21,0,*75
1495314460.58,16274,19.06,73908.5,1.91,1.21,1.21,0,*72
1495314461.82,16275,19.0,73906.5,1.91,1.21,1.21,0,*73
1495314463.06,16276,19.0,73892.8,1.91,1.17,1.17,0,*70
1495314464.3,16277,19.0,73892.5,1.91,1.21,1.17,0,*74
1495314465.53,16278,19.0,73896.8,1.91,1.21,1.17,0,*7B
1495314466.77,16279,19.0,73888.5,1.91,1.17,1.21,0,*7A
1495314468.01,16280,19.06,73896.5,1.91,1.17,1.17,0,*79
1495314469.24,16281,19.0,73898.0,1.91,1.17,1.17,0,*78
1495314470.48,16282,19.0,73896.3,1.91,1.17,1.17,0,*7B
1495314471.73,16283,19.0,73894.5,1.89,1.17,1.17,0,*73
1495314472.99,16284,19.0,73902.5,1.89,1.17,1.17,0,*74
1495314474.22,16285,19.0,73896.3,1.91,1.13,1.13,0,*7C
1495314475.46,16286,19.0,73886.5,1.91,1.21,1.17,0,*7A
1495314476.72,16287,19.06,73892.3,1.89,1.17,1.21,0,*72
1495314477.98,16288,19.0,73892.8,1.89,1.17,1.17,0,*78
1495314479.21,16289,19.0,73896.3,1.91,1.17,1.17,0,*70
1495314480.45,16290,19.0,73898.8,1.91,1.17,1.17,0,*78
1495314481.68,16291,19.06,73898.5,1.91,1.17,1.17,0,*79
1495314482.92,16292,19.0,73884.0,1.91,1.17,1.17,0,*7A
1495314484.15,16293,19.0,73886.0,1.91,1.17,1.21,0,*7E
1495314485.41,16294,19.06,73914.5,1.89,1.17,1.17,0,*75
1495314486.65,16295,19.0,73898.3,1.91,1.21,1.29,0,*75
1495314487.88,16296,19.0,73906.8,1.91,1.21,1.29,0,*76
1495314489.12,16297,19.0,73902.3,1.91,1.29,1.29,0,*7F
1495314490.36,16298,19.0,73906.5,1.91,1.33,1.33,0,*70
1495314491.6,16299,19.0,73904.5,1.91,1.29,1.29,0,*71
1495314492.84,16300,19.0,73902.8,1.91,1.21,1.21,0,*70
1495314494.1,16301,19.0,73902.3,1.89,1.21,1.33,0,*7B
1495314495.34,16302,19.0,73904.3,1.91,1.29,1.33,0,*79
1495314496.58,16303,19.0,73892.8,1.91,1.29,1.33,0,*78
1495314497.79,16304,19.0,73894.0,1.91,1.37,1.41,0,*75
1495314499.02,16305,19.0,73896.3,1.91,1.33,1.33,0,*75
1495314500.27,16306,19.0,73892.3,1.91,1.29,1.33,0,*7D
1495314501.51,16307,19.0,73894.0,1.91,1.29,1.21,0,*7F
1495314502.77,16308,19.0,73898.5,1.93,1.33,1.33,0,*7A
1495314504.03,16309,19.0,73906.5,1.93,1.37,1.33,0,*7F
1495314505.29,16310,19.0,73904.0,1.93,1.25,1.25,0,*73
1495314506.54,16311,19.0,73898.8,1.93,1.25,1.25,0,*72
1495314507.79,16312,19.0,73888.8,1.93,1.25,1.25,0,*71
1495314509.06,16313,19.0,73896.3,1.93,1.21,1.25,0,*74
1495314510.3,16314,19.0,73896.0,1.91,1.33,1.21,0,*76
1495314511.53,16315,19.0,73892.0,1.91,1.29,1.29,0,*74
1495314512.8,16316,19.0,73878.0,1.93,1.33,1.33,0,*75
1495314514.06,16317,19.0,73886.3,1.93,1.33,1.33,0,*74
1495314515.32,16318,19.0,73882.3,1.93,1.33,1.33,0,*7B
1495314516.58,16319,19.0,73884.5,1.93,1.25,1.33,0,*7D
1495314517.84,16320,19.0,73886.3,1.93,1.25,1.37,0,*73
1495314519.09,16321,19.0,73884.3,1.93,1.25,1.33,0,*76
1495314520.36,16322,19.0,73882.0,1.93,1.21,1.25,0,*76
1495314521.62,16323,19.0,73880.5,1.93,1.21,1.21,0,*73
1495314522.88,16324,19.0,73884.8,1.93,1.25,1.21,0,*70
1495314524.13,16325,19.0,73888.8,1.93,1.25,1.25,0,*75
1495314525.4,16326,19.0,73894.5,1.93,1.21,1.21,0,*76
1495314526.66,16327,19.0,73898.5,1.93,1.21,1.21,0,*77
1495314527.93,16328,19.0,73894.0,1.93,1.21,1.21,0,*78
1495314529.19,16329,19.0,73896.0,1.93,1.21,1.21,0,*79
1495314530.45,16330,19.0,73904.3,1.93,1.21,1.25,0,*75
1495314531.71,16331,19.0,73900.0,1.93,1.25,1.21,0,*74
1495314532.97,16332,19.0,73894.0,1.93,1.21,1.25,0,*77
1495314534.23,16333,19.0,73892.8,1.93,1.33,1.25,0,*75
1495314535.5,16334,19.0,73898.8,1.93,1.33,1.33,0,*75
1495314536.76,16335,19.0,73904.8,1.93,1.33,1.33,0,*74
1495314538.02,16336,19.0,73898.5,1.93,1.33,1.37,0,*73
1495314539.26,16337,19.0,73896.0,1.91,1.29,1.29,0,*74
1495314540.5,16338,19.0,73896.0,1.91,1.29,1.33,0,*70
1495314541.76,16339,19.0,73888.0,1.93,1.33,1.25,0,*7F
1495314543.02,16340,19.0,73888.3,1.93,1.33,1.33,0,*76
1495314544.29,16341,19.0,73894.8,1.93,1.33,1.33,0,*77
1495314545.52,16342,19.0,73892.3,1.95,1.33,1.33,0,*72